User: anonymous   Login
Location: Unspecified
(0.0000°N, 0.0000°E)
Time: 14:15:52
(UTC+00:00)
Language:

Kosmos-2142 - Orbit

View from above orbital plane
View from above orbital plane
View from above satellite
View from above satellite

Ground track
Ground track

The orbit data is extracted from the following two-line orbital elements,

1 21230U 91029A   18113.95228396 +.00000062 +00000-0 +50272-4 0  9995
2 21230 082.9535 272.8152 0037515 206.3159 315.7894 13.73120312353883
Epoch (UTC): 23 April 2018 22:51:17
Eccentricity: 0.0037515
inclination: 82.9535°
perigee height: 961 km
apogee height: 1016 km
right ascension of ascending node: 272.8152°
argument of perigee: 206.3159°
revolutions per day: 13.73120312
mean anomaly at epoch: 315.7894°
orbit number at epoch: 35388

The dashed part of the orbit path shows where the satellite is in the earth's shadow,  

DLR